TimeCEST,TemperatureF,Dew PointF,Humidity,Sea Level PressureIn,VisibilityMPH,Wind Direction,Wind SpeedMPH,Gust SpeedMPH,PrecipitationIn,Events,Conditions,WindDirDegrees,DateUTC
12:00 AM,55.4,50.0,82,30.01,-9999.0,SSW,3.5,-,N/A,,Clear,200,2012-10-05 22:00:00
1:00 AM,57.2,51.8,82,30.01,-9999.0,SSW,5.8,-,N/A,,Clear,200,2012-10-05 23:00:00
2:00 AM,57.2,51.8,82,30.01,-9999.0,SSW,4.6,-,N/A,,Clear,200,2012-10-06 00:00:00
4:00 AM,55.4,50.0,82,30.01,-9999.0,South,10.4,-,N/A,,Clear,170,2012-10-06 02:00:00
6:00 AM,53.6,50.0,88,30.04,-9999.0,South,3.5,-,N/A,,Clear,180,2012-10-06 04:00:00
7:00 AM,53.6,50.0,88,30.01,-9999.0,SSW,5.8,-,N/A,,Clear,200,2012-10-06 05:00:00
8:00 AM,53.6,50.0,88,30.04,-9999.0,Calm,Calm,-,N/A,,Clear,0,2012-10-06 06:00:00
9:00 AM,57.2,51.8,82,30.04,-9999.0,South,4.6,-,N/A,,Clear,190,2012-10-06 07:00:00
10:00 AM,62.6,53.6,72,30.04,-9999.0,SSW,9.2,-,N/A,,Clear,200,2012-10-06 08:00:00
11:00 AM,64.4,53.6,68,30.01,-9999.0,SSE,6.9,-,N/A,,Clear,160,2012-10-06 09:00:00
12:00 PM,68.0,57.2,68,30.01,-9999.0,South,10.4,-,N/A,,Clear,170,2012-10-06 10:00:00
1:00 PM,69.8,53.6,56,30.01,-9999.0,SW,13.8,-,N/A,,Clear,220,2012-10-06 11:00:00
2:00 PM,71.6,53.6,53,29.98,-9999.0,SSW,12.7,-,N/A,,Clear,210,2012-10-06 12:00:00
3:00 PM,73.4,51.8,47,29.95,-9999.0,SSW,13.8,-,N/A,,Clear,210,2012-10-06 13:00:00
5:00 PM,69.8,53.6,56,29.89,-9999.0,South,13.8,-,N/A,,Clear,190,2012-10-06 15:00:00
6:00 PM,68.0,50.0,52,29.89,-9999.0,SW,10.4,-,N/A,,Clear,220,2012-10-06 16:00:00
7:00 PM,68.0,50.0,52,29.89,-9999.0,SW,9.2,-,N/A,,Clear,220,2012-10-06 17:00:00
8:00 PM,66.2,50.0,56,29.89,-9999.0,SW,6.9,-,N/A,,Clear,220,2012-10-06 18:00:00
9:00 PM,68.0,51.8,56,29.89,-9999.0,SSW,12.7,-,N/A,,Clear,210,2012-10-06 19:00:00
10:00 PM,68.0,50.0,52,29.89,-9999.0,SW,12.7,-,N/A,,Clear,230,2012-10-06 20:00:00
11:00 PM,66.2,50.0,56,29.92,-9999.0,WSW,11.5,-,N/A,,Clear,240,2012-10-06 21:00:00